"Pseudo-MPEC" for ZTF10Di

Created 2026 May 12 10:35:11 UT using Find_Orb

Click here for an explanation of pseudo-MPECs

 
 Astrometry: 
     ZTF10Di*0C2026 05 07.37419214 55 06.923-08 39 17.15   ~57Ao 16.62gUNEOCPI41
     ZTF10Di 0C2026 05 07.37454014 55 12.145-08 39 37.30   ~57Ao 16.62gUNEOCPI41
     ZTF10Di 0C2026 05 07.38893914 58 50.489-08 53 30.27   ~57Ao 15.97iUNEOCPI41
     ZTF10Di 0C2026 05 07.38928614 58 55.814-08 53 50.07   ~57Ao 15.97iUNEOCPI41

Station data:
(I41) Palomar Mountain--ZTF  (N33.357336 W116.859780)  US/California.
   Observers B. T. Bolin, Z. T. F. Collaboration. Measurers B. T. Bolin,
   Z.-Y. Lin, F. J. Masci. 1.2-m f/2.4 Schmidt.

Orbital elements:  ZTF10Di
   Perigee 2026 May 7.113257 +/- 36.4 TT =  2:43:05.4 (JD 2461167.613257)
Epoch 2026 May  7.0 TT = JDT 2461167.5                           AutoNEOCP
q154083.7582 +/- 1.56e+7            (J2000 equator)
H   28.27 G 0.15                    Peri.  137.955780 +/- 60
                                    Node    16.898050 +/- 80
e 135.12929219 +/- 0.251            Incl.   17.384100 +/- 1.4
From 4 observations 2026 May 7 (21.7 min); mean residual 1".66
Residuals in arcseconds: 
260507 I41  2.3+  .57-    260507 I41  2.3-  .41+    
260507 I41  2.3-  .57+    260507 I41  2.3+  .41-    

Ephemerides (geocentric):
Date (UTC) HH   RA             Dec           delta  r     elong  mag " sig PA
---- --------  ------------   ------------  ------ ------ -----  --- --------
2026 05 12 11  16 11 18.811   -12 42 28.17  .05767 1.0661 165.6 23.0  61d  95
2026 05 12 12  16 11 20.487   -12 42 35.14  .05812 1.0666 165.6 23.0  61d  95
2026 05 12 13  16 11 22.133   -12 42 42.04  .05857 1.0670 165.6 23.0  61d  95
2026 05 12 14  16 11 23.749   -12 42 48.85  .05902 1.0675 165.7 23.0  61d  95
2026 05 12 15  16 11 25.336   -12 42 55.58  .05948 1.0680 165.7 23.1  61d  95
2026 05 12 16  16 11 26.894   -12 43 02.24  .05993 1.0684 165.7 23.1  61d  95
2026 05 12 17  16 11 28.424   -12 43 08.82  .06038 1.0689 165.7 23.1  61d  95
2026 05 12 18  16 11 29.927   -12 43 15.33  .06083 1.0693 165.8 23.1  61d  95
2026 05 12 19  16 11 31.402   -12 43 21.77  .06128 1.0698 165.8 23.1  61d  95
2026 05 12 20  16 11 32.852   -12 43 28.14  .06173 1.0702 165.8 23.1  61d  95
2026 05 12 21  16 11 34.276   -12 43 34.44  .06218 1.0707 165.9 23.2  61d  95
2026 05 12 22  16 11 35.674   -12 43 40.68  .06264 1.0711 165.9 23.2  61d  95
2026 05 12 23  16 11 37.048   -12 43 46.86  .06309 1.0716 165.9 23.2  61d  95
2026 05 13 00  16 11 38.398   -12 43 52.97  .06354 1.0721 165.9 23.2  61d  95
2026 05 13 01  16 11 39.724   -12 43 59.02  .06399 1.0725 166.0 23.2  61d  95
2026 05 13 02  16 11 41.027   -12 44 05.01  .06444 1.0730 166.0 23.2  61d  95
2026 05 13 03  16 11 42.308   -12 44 10.95  .06490 1.0734 166.0 23.3  61d  95
2026 05 13 04  16 11 43.566   -12 44 16.83  .06535 1.0739 166.1 23.3  61d  95
2026 05 13 05  16 11 44.802   -12 44 22.65  .06580 1.0743 166.1 23.3  61d  95
2026 05 13 06  16 11 46.017   -12 44 28.43  .06625 1.0748 166.1 23.3  61d  95
2026 05 13 07  16 11 47.211   -12 44 34.15  .06671 1.0753 166.1 23.3  61d  95
2026 05 13 08  16 11 48.385   -12 44 39.81  .06716 1.0757 166.2 23.3  61d  95
2026 05 13 09  16 11 49.538   -12 44 45.43  .06761 1.0762 166.2 23.3  61d  95
2026 05 13 10  16 11 50.672   -12 44 51.00  .06806 1.0766 166.2 23.4  61d  95
2026 05 13 11  16 11 51.786   -12 44 56.53  .06852 1.0771 166.3 23.4  61d  95
2026 05 13 12  16 11 52.882   -12 45 02.01  .06897 1.0776 166.3 23.4  61d  95
2026 05 13 13  16 11 53.958   -12 45 07.44  .06942 1.0780 166.3 23.4  61d  95
2026 05 13 14  16 11 55.017   -12 45 12.83  .06987 1.0785 166.3 23.4  61d  95
2026 05 13 15  16 11 56.057   -12 45 18.17  .07033 1.0789 166.4 23.4  61d  95
2026 05 13 16  16 11 57.080   -12 45 23.48  .07078 1.0794 166.4 23.4  61d  95
2026 05 13 17  16 11 58.086   -12 45 28.74  .07123 1.0798 166.4 23.4  61d  95
2026 05 13 18  16 11 59.074   -12 45 33.97  .07168 1.0803 166.5 23.5  61d  95
2026 05 13 19  16 12 00.046   -12 45 39.15  .07214 1.0808 166.5 23.5  61d  95
2026 05 13 20  16 12 01.002   -12 45 44.30  .07259 1.0812 166.5 23.5  61d  95
2026 05 13 21  16 12 01.941   -12 45 49.41  .07304 1.0817 166.5 23.5  61d  95
2026 05 13 22  16 12 02.865   -12 45 54.48  .07350 1.0821 166.6 23.5  61d  95
2026 05 13 23  16 12 03.774   -12 45 59.52  .07395 1.0826 166.6 23.5  61d  95
2026 05 14 00  16 12 04.667   -12 46 04.53  .07440 1.0831 166.6 23.5  61d  95
2026 05 14 01  16 12 05.545   -12 46 09.50  .07486 1.0835 166.7 23.6  61d  95
2026 05 14 02  16 12 06.409   -12 46 14.44  .07531 1.0840 166.7 23.6  61d  95
2026 05 14 03  16 12 07.258   -12 46 19.34  .07576 1.0844 166.7 23.6  61d  95
2026 05 14 04  16 12 08.093   -12 46 24.22  .07622 1.0849 166.7 23.6  61d  95
2026 05 14 05  16 12 08.914   -12 46 29.06  .07667 1.0854 166.8 23.6  61d  95
2026 05 14 06  16 12 09.721   -12 46 33.88  .07712 1.0858 166.8 23.6  61d  95
2026 05 14 07  16 12 10.515   -12 46 38.66  .07758 1.0863 166.8 23.6  61d  95
2026 05 14 08  16 12 11.296   -12 46 43.42  .07803 1.0867 166.9 23.6  61d  95
2026 05 14 09  16 12 12.063   -12 46 48.15  .07849 1.0872 166.9 23.7  61d  95
2026 05 14 10  16 12 12.818   -12 46 52.85  .07894 1.0877 166.9 23.7  61d  95